Regional Weather Roundup
Issued by NWS

Home | Current Version | Previous Version | Graphics & Text | Print | Product List | Glossary On
Versions: 1 2 3 4 5 6 7 8 9 10 11 12 13 14 15 16 17 18 19 20 21 22 23 24 25 26 27 28 29 30 31 32 33 34 35 36 37 38 39 40 41 42 43 44 45 46 47 48 49 50
000
ASUS43 KLOT 210506
RWRIL

ILLINOIS REGIONAL WEATHER ROUNDUP
NATIONAL WEATHER SERVICE CHICAGO/ROMEOVILLE IL
1100 PM CST SAT DEC 20 2014

NOTE: "FAIR" INDICATES FEW OR NO CLOUDS BELOW 12,000 FEET WITH NO
SIGNIFICANT WEATHER AND/OR OBSTRUCTIONS TO VISIBILITY.

* THESE STATIONS ARE NOT UNDER NWS QUALITY CONTROL. THEY ALSO MAY NOT
  REPORT WEATHER SUCH AS PRECIPITATION OR FOG.

ILZ001-002-007-009-015-016-024-210600-
NORTHWEST ILLINOIS

CITY           SKY/WX    TMP DP  RH WIND       PRES   REMARKS
MOLINE         CLOUDY    33  30  88 S9        30.19F FOG     WCI  25
STERLING*      CLOUDY    32  27  80 S3        30.22S
SAVANNA*       CLOUDY    33  29  86 S5        30.20F FOG     WCI  29
$$

ILZ003-004-008-010-011-017-018-210600-
NORTH CENTRAL ILLINOIS

CITY           SKY/WX    TMP DP  RH WIND       PRES   REMARKS
ROCKFORD       CLOUDY    32  27  81 S7        30.24S WCI  26
FREEPORT*      CLOUDY    31  28  90 S7        30.22S FOG     WCI  24
ROCHELLE*      CLOUDY    31  29  92 S8        30.23S FOG     WCI  23
DE KALB*       CLOUDY    29  27  91 S10       30.23S FOG     WCI  20
PERU*          CLOUDY    33  30  89 S8        30.24S WCI  26
$$

ILZ005-006-012>014-019>023-210600-
NORTHEAST ILLINOIS

CITY           SKY/WX    TMP DP  RH WIND       PRES   REMARKS
CHICAGO-OHARE  CLOUDY    32  26  78 S5        30.24S WCI  27
CHICAGO-MIDWAY CLOUDY    34  27  75 S6        30.25F WCI  29
AURORA         CLOUDY    32  26  78 S6        30.24S HAZE    WCI  26
LANSING*       CLOUDY    32  27  83 S6        30.26S WCI  26
JOLIET*        CLOUDY    32  27  83 S5        30.26R WCI  27
WAUKEGAN       CLOUDY    31  25  78 S6        30.23F WCI  25
DUPAGE AIRPORT CLOUDY    32  27  81 S6        30.23F WCI  26
KANKAKEE*      CLOUDY    32  29  88 SE5       30.27F WCI  27
WHEELING       CLOUDY    32  25  75 S7        30.26S WCI  26
MORRIS*        CLOUDY    32  30  92 S5        30.25R WCI  27
ROMEOVILLE*    CLOUDY    32  28  83 S8        30.25S WCI  25
NORTHERLY ISL    N/A     33  26  76 S5          N/A  WCI  29
$$

LMZ740>746-210600-
SOUTHERN LAKE MICHIGAN

STATION/POSITION SKY/WX   TEMP    WIND        PRES    VSBY  WAVE
                          AIR SEA DIR/SP/G                  HT/PER
                          (F)     (DEG/KT/KT) (MB)    (MI)  (FT/S)
WAUKEGAN HARBOR            33     200/  6/  8   N/A
HARRISON CRIB              33     190/ 10/ 12   N/A
BURNHAM HARBOR             33     190/  4/  8   N/A
CALUMET HARBOR             33     170/  5/  7 1023.4S
$$

ILZ025>027-034>036-040-047-049-050-058-095>099-210600-
WEST-CENTRAL ILLINOIS

CITY           SKY/WX    TMP DP  RH WIND       PRES   REMARKS
QUINCY         CLOUDY    38  33  82 S8        30.20S WCI  32
GALESBURG*     CLOUDY    34  32  92 SE5       30.20S WCI  29
MACOMB*        CLOUDY    35  33  95 SE6       30.22F FOG     WCI  30
JACKSONVILLE*  CLOUDY    39  34  81 S9        30.22F WCI  33
PITTSFIELD*    CLOUDY    37  34  88 SE6       30.23S WCI  33
$$

ILZ028>032-037-038-041>044-048-051>054-059>061-210600-
CENTRAL ILLINOIS

CITY           SKY/WX    TMP DP  RH WIND       PRES   REMARKS
PONTIAC        CLOUDY    33  30  89 SE7       30.25F WCI  27
BLOOMINGTON    CLOUDY    32  29  89 S9        30.25S WCI  24
DECATUR        CLOUDY    34  28  79 S9        30.27R WCI  27
PEORIA         CLOUDY    36  28  73 SE6       30.22F WCI  31
LACON*         CLOUDY    33  28  82 S5        30.22F WCI  28
LINCOLN*       CLOUDY    35  31  88 S8        30.26S WCI  28
SPRINGFIELD    CLOUDY    37  31  78 S10       30.24S WCI  30
TAYLORVILLE    CLOUDY    34  30  86 SE7       30.26R WCI  28
$$

ILZ033-039-045-046-055>057-062-063-210600-
EAST-CENTRAL ILLINOIS

CITY           SKY/WX    TMP DP  RH WIND       PRES   REMARKS
CHAMPAIGN      CLOUDY    31  27  85 SE8       30.26F WCI  23
DANVILLE*      CLEAR     28  25  88 S3        30.25S
RANTOUL*       CLOUDY    32  29  88 S10       30.26F WCI  24
MATTOON        CLOUDY    31  26  82 S8        30.26F WCI  23
PARIS*         CLEAR     28  27  96 CALM      30.29F
$$

ILZ079-100>102-210600-
SOUTHWEST ILLINOIS

CITY           SKY/WX    TMP DP  RH WIND       PRES   REMARKS
ALTON          CLOUDY    38  33  80 SE5       30.26R WCI  35
BELLEVILLE     CLOUDY    38  34  83 SE6       30.26R WCI  34
CAHOKIA*       CLOUDY    41  34  76 S7        30.26R
SPARTA*        CLOUDY    37  32  81 SE5       30.28S WCI  34
$$

ILZ064>066-069>071-074>076-080>082-084>086-088>090-092>094-210600-
SOUTH-CENTRAL ILLINOIS

CITY           SKY/WX    TMP DP  RH WIND       PRES   REMARKS
CARBONDALE     PTCLDY    32  27  81 CALM      30.28S
CAIRO*         CLEAR     31  31 100 CALM      30.28S
EFFINGHAM*     CLOUDY    33  27  79 E7        30.29S WCI  26
MARION         CLEAR     32  28  86 CALM      30.29S
MT. VERNON     CLOUDY    36  27  69 CALM      30.29S
CENTRALIA*     CLOUDY    36  28  75 SE5       30.28R WCI  32
SALEM*         CLOUDY    37  30  74 SE6       30.28R WCI  33
METROPOLIS*    CLEAR     29  29 100 CALM      30.28S
$$

ILZ067-068-072-073-078-083-087-091-210600-
SOUTHEAST ILLINOIS

CITY           SKY/WX    TMP DP  RH WIND       PRES   REMARKS
LAWRENCEVILLE  CLEAR     26  24  92 E3        30.30F FOG
FLORA*         CLEAR     33  28  85 SE5       30.29S WCI  28
FAIRFIELD*     CLOUDY    31  27  84 CALM      30.28S
HARRISBURG*    CLEAR     31  28  90 CALM      30.30S
ROBINSON*      CLEAR     24  24  99 CALM      30.31F FOG
CARMI*         CLEAR     28  28 100 CALM      30.29F FOG
$$

ABBREVIATIONS USED IN REMARKS
   TC - TEMPERATURE IN CELSIUS
  WCI - WIND CHILL INDEX
   HX - HEAT INDEX
  VSB - VISIBILITY
$$




USA.gov is the U.S. government's official web portal to all federal, state and local government web resources and services.